• In Uzbekistan
  • List of Countries
  • For 7 days
  • Water Temperature
  • Weather Map
  • Weather Widgets
  • user-avatar
    Login

    Hourly Weather Talas

    Today, 22 August, Thursday

    Time Temperature Precipitation Wind Pressure Humidity
    00:00 +12°C° 0 mm 0 mps 596 mmHg 55%
    01:00 +12°C° 0 mm 1 mps 596 mmHg 55%
    02:00 +12°C° 0 mm 1 mps 596 mmHg 56%
    03:00 +12°C° 0 mm 1 mps 596 mmHg 56%
    04:00 +12°C° 0 mm 1 mps 595 mmHg 56%
    05:00 +12°C° 0 mm 2 mps 596 mmHg 57%
    06:00 +14°C° 0 mm 1 mps 597 mmHg 52%
    07:00 +16°C° 0 mm 1 mps 598 mmHg 46%
    08:00 +19°C° 0 mm 1 mps 599 mmHg 41%
    09:00 +20°C° 0 mm 1 mps 599 mmHg 38%
    10:00 +21°C° 0 mm 2 mps 599 mmHg 36%
    11:00 +21°C° 0 mm 2 mps 600 mmHg 35%
    12:00 +23°C° 0.5 mm 2 mps 599 mmHg 36%
    13:00 +22°C° 0.5 mm 3 mps 599 mmHg 37%
    14:00 +22°C° 0.5 mm 3 mps 599 mmHg 38%
    15:00 +21°C° 0.6 mm 3 mps 599 mmHg 39%
    16:00 +21°C° 0.6 mm 3 mps 598 mmHg 41%
    17:00 +20°C° 0.6 mm 2 mps 598 mmHg 43%
    18:00 +19°C° 0 mm 2 mps 598 mmHg 47%
    19:00 +17°C° 0 mm 2 mps 598 mmHg 52%
    20:00 +16°C° 0 mm 1 mps 597 mmHg 56%
    21:00 +15°C° 0 mm 1 mps 597 mmHg 58%
    22:00 +14°C° 0 mm 1 mps 597 mmHg 60%
    23:00 +12°C° 0 mm 0 mps 596 mmHg 63%

    Tomorrow, 23 August, Friday

    Time Temperature Precipitation Wind Pressure Humidity
    00:00 +13°C° 0 mm 1 mps 596 mmHg 62%
    01:00 +13°C° 0 mm 1 mps 595 mmHg 62%
    02:00 +12°C° 0 mm 2 mps 595 mmHg 62%
    03:00 +12°C° 0 mm 2 mps 595 mmHg 63%
    04:00 +12°C° 0 mm 2 mps 595 mmHg 63%
    05:00 +12°C° 0 mm 2 mps 595 mmHg 64%
    06:00 +13°C° 0 mm 2 mps 596 mmHg 58%
    07:00 +15°C° 0 mm 1 mps 597 mmHg 53%
    08:00 +18°C° 0 mm 1 mps 597 mmHg 47%
    09:00 +18°C° 0 mm 2 mps 598 mmHg 45%
    10:00 +19°C° 0 mm 2 mps 598 mmHg 43%
    11:00 +20°C° 0 mm 3 mps 599 mmHg 41%
    12:00 +20°C° 0.5 mm 3 mps 598 mmHg 43%
    13:00 +20°C° 0.5 mm 2 mps 598 mmHg 44%
    14:00 +20°C° 0.5 mm 2 mps 598 mmHg 45%
    15:00 +19°C° 1 mm 2 mps 597 mmHg 49%
    16:00 +19°C° 1 mm 2 mps 597 mmHg 52%
    17:00 +18°C° 1 mm 2 mps 597 mmHg 55%
    18:00 +16°C° 0.3 mm 2 mps 597 mmHg 62%
    19:00 +15°C° 0.3 mm 1 mps 596 mmHg 69%
    20:00 +13°C° 0.3 mm 1 mps 596 mmHg 76%
    21:00 +13°C° 0.2 mm 1 mps 596 mmHg 76%
    22:00 +13°C° 0.2 mm 1 mps 597 mmHg 76%
    23:00 +13°C° 0.2 mm 1 mps 597 mmHg 75%

    Day after tomorrow, 24 August, Saturday

    Time Temperature Precipitation Wind Pressure Humidity
    00:00 +13°C° 0.4 mm 2 mps 597 mmHg 78%
    01:00 +12°C° 0.4 mm 2 mps 597 mmHg 80%
    02:00 +12°C° 0.4 mm 2 mps 597 mmHg 82%
    03:00 +11°C° 0 mm 3 mps 597 mmHg 81%
    04:00 +10°C° 0 mm 3 mps 597 mmHg 79%
    05:00 +10°C° 0 mm 3 mps 598 mmHg 78%
    06:00 +11°C° 0 mm 3 mps 598 mmHg 72%
    07:00 +13°C° 0 mm 2 mps 599 mmHg 67%
    08:00 +14°C° 0 mm 2 mps 599 mmHg 61%
    09:00 +16°C° 0 mm 2 mps 600 mmHg 55%
    10:00 +17°C° 0 mm 2 mps 600 mmHg 49%
    11:00 +19°C° 0 mm 1 mps 601 mmHg 43%
    12:00 +19°C° 0.1 mm 2 mps 601 mmHg 44%
    13:00 +19°C° 0.1 mm 3 mps 600 mmHg 45%
    14:00 +20°C° 0.1 mm 3 mps 600 mmHg 46%
    15:00 +19°C° 0.3 mm 3 mps 600 mmHg 47%
    16:00 +19°C° 0.3 mm 3 mps 600 mmHg 48%
    17:00 +19°C° 0.3 mm 3 mps 600 mmHg 49%
    18:00 +17°C° 0 mm 2 mps 600 mmHg 55%
    19:00 +16°C° 0 mm 1 mps 599 mmHg 61%
    20:00 +14°C° 0 mm 1 mps 598 mmHg 66%
    21:00 +14°C° 0 mm 1 mps 598 mmHg 67%
    22:00 +13°C° 0 mm 1 mps 598 mmHg 67%
    23:00 +13°C° 0 mm 1 mps 598 mmHg 67%

    25 August, Sunday

    Time Temperature Precipitation Wind Pressure Humidity
    00:00 +13°C° 0 mm 2 mps 598 mmHg 64%
    01:00 +13°C° 0 mm 2 mps 597 mmHg 60%
    02:00 +13°C° 0 mm 2 mps 597 mmHg 57%
    03:00 +12°C° 0 mm 2 mps 597 mmHg 57%
    04:00 +12°C° 0 mm 2 mps 597 mmHg 56%
    05:00 +12°C° 0 mm 2 mps 597 mmHg 56%
    06:00 +14°C° 0 mm 2 mps 598 mmHg 52%
    07:00 +16°C° 0 mm 1 mps 598 mmHg 47%
    08:00 +19°C° 0 mm 1 mps 599 mmHg 43%
    09:00 +20°C° 0 mm 1 mps 600 mmHg 39%
    10:00 +21°C° 0 mm 1 mps 600 mmHg 35%
    11:00 +22°C° 0 mm 1 mps 600 mmHg 31%
    12:00 +23°C° 0 mm 2 mps 600 mmHg 31%
    13:00 +24°C° 0 mm 2 mps 600 mmHg 31%
    14:00 +24°C° 0 mm 3 mps 600 mmHg 31%
    15:00 +24°C° 0 mm 3 mps 600 mmHg 33%
    16:00 +22°C° 0 mm 3 mps 600 mmHg 35%
    17:00 +22°C° 0 mm 3 mps 599 mmHg 37%
    18:00 +20°C° 0 mm 2 mps 598 mmHg 42%
    19:00 +19°C° 0 mm 1 mps 598 mmHg 48%
    20:00 +16°C° 0 mm 1 mps 597 mmHg 54%
    21:00 +16°C° 0 mm 1 mps 597 mmHg 52%
    22:00 +16°C° 0 mm 2 mps 597 mmHg 50%
    23:00 +16°C° 0 mm 2 mps 597 mmHg 48%

    26 August, Monday

    Time Temperature Precipitation Wind Pressure Humidity
    00:00 +15°C° 0 mm 2 mps 597 mmHg 46%
    01:00 +15°C° 0 mm 2 mps 596 mmHg 45%
    02:00 +15°C° 0 mm 2 mps 596 mmHg 44%
    03:00 +14°C° 0 mm 2 mps 596 mmHg 43%
    04:00 +14°C° 0 mm 2 mps 596 mmHg 43%
    05:00 +14°C° 0 mm 2 mps 596 mmHg 43%
    06:00 +16°C° 0 mm 2 mps 597 mmHg 40%
    07:00 +18°C° 0 mm 2 mps 598 mmHg 37%
    08:00 +20°C° 0 mm 2 mps 599 mmHg 33%
    09:00 +21°C° 0 mm 2 mps 599 mmHg 30%
    10:00 +23°C° 0 mm 1 mps 599 mmHg 27%
    11:00 +25°C° 0 mm 1 mps 600 mmHg 24%
    12:00 +25°C° 0 mm 2 mps 600 mmHg 23%
    13:00 +26°C° 0 mm 2 mps 600 mmHg 23%
    14:00 +27°C° 0 mm 2 mps 599 mmHg 22%
    15:00 +26°C° 0 mm 3 mps 599 mmHg 24%
    16:00 +25°C° 0 mm 3 mps 599 mmHg 27%
    17:00 +25°C° 0 mm 3 mps 599 mmHg 29%
    18:00 +21°C° 0 mm 2 mps 598 mmHg 35%
    19:00 +20°C° 0 mm 1 mps 597 mmHg 40%
    20:00 +18°C° 0 mm 1 mps 596 mmHg 46%
    21:00 +18°C° 0 mm 1 mps 596 mmHg 45%
    22:00 +17°C° 0 mm 2 mps 596 mmHg 43%
    23:00 +17°C° 0 mm 3 mps 596 mmHg 41%

    27 August, Tuesday

    Time Temperature Precipitation Wind Pressure Humidity
    00:00 +16°C° 0 mm 3 mps 596 mmHg 41%
    01:00 +16°C° 0 mm 3 mps 596 mmHg 42%
    02:00 +16°C° 0 mm 3 mps 595 mmHg 42%
    03:00 +14°C° 0 mm 3 mps 595 mmHg 42%
    04:00 +15°C° 0 mm 2 mps 595 mmHg 42%
    05:00 +15°C° 0 mm 2 mps 595 mmHg 42%
    06:00 +16°C° 0 mm 2 mps 596 mmHg 39%
    07:00 +18°C° 0 mm 2 mps 597 mmHg 36%
    08:00 +20°C° 0 mm 2 mps 598 mmHg 33%
    09:00 +23°C° 0 mm 2 mps 599 mmHg 29%
    10:00 +24°C° 0 mm 2 mps 599 mmHg 26%
    11:00 +25°C° 0 mm 3 mps 600 mmHg 22%
    12:00 +25°C° 0 mm 3 mps 600 mmHg 22%
    13:00 +25°C° 0 mm 4 mps 599 mmHg 22%
    14:00 +25°C° 0 mm 5 mps 599 mmHg 22%
    15:00 +23°C° 0 mm 5 mps 599 mmHg 24%
    16:00 +22°C° 0 mm 4 mps 599 mmHg 27%
    17:00 +21°C° 0 mm 4 mps 598 mmHg 30%
    18:00 +19°C° 0 mm 3 mps 598 mmHg 33%
    19:00 +18°C° 0 mm 2 mps 598 mmHg 36%
    20:00 +16°C° 0 mm 1 mps 598 mmHg 39%
    21:00 +15°C° 0 mm 1 mps 598 mmHg 41%
    22:00 +15°C° 0 mm 1 mps 598 mmHg 42%
    23:00 +14°C° 0 mm 1 mps 598 mmHg 44%
    Show more